TimeAKDT,TemperatureF,Dew PointF,Humidity,Sea Level PressureIn,VisibilityMPH,Wind Direction,Wind SpeedMPH,Gust SpeedMPH,PrecipitationIn,Events,Conditions,WindDirDegrees,DateUTC
12:16 AM,51.8,46.4,82,30.31,10.0,Calm,Calm,-,N/A,,Overcast,0,2012-09-05 08:16:00
12:36 AM,51.8,46.4,82,30.31,10.0,Calm,Calm,-,N/A,,Overcast,0,2012-09-05 08:36:00
12:56 AM,51.8,46.4,82,30.32,10.0,Calm,Calm,-,N/A,,Overcast,0,2012-09-05 08:56:00
1:16 AM,50.0,46.4,87,30.32,3.0,Calm,Calm,-,N/A,,Overcast,0,2012-09-05 09:16:00
1:36 AM,50.0,46.4,87,30.32,10.0,Calm,Calm,-,N/A,,Overcast,0,2012-09-05 09:36:00
1:56 AM,50.0,46.4,87,30.32,10.0,Calm,Calm,-,N/A,,Overcast,0,2012-09-05 09:56:00
2:16 AM,50.0,46.4,87,30.32,10.0,Calm,Calm,-,N/A,,Overcast,0,2012-09-05 10:16:00
2:36 AM,48.2,46.4,93,30.32,10.0,ESE,3.5,-,N/A,,Mostly Cloudy,110,2012-09-05 10:36:00
2:56 AM,50.0,46.4,87,30.32,10.0,Calm,Calm,-,N/A,,Overcast,0,2012-09-05 10:56:00
3:16 AM,50.0,46.4,87,30.33,10.0,Calm,Calm,-,N/A,,Overcast,0,2012-09-05 11:16:00
3:36 AM,48.2,44.6,87,30.32,10.0,Calm,Calm,-,N/A,,Overcast,0,2012-09-05 11:36:00
3:56 AM,48.2,44.6,87,30.33,10.0,Calm,Calm,-,N/A,,Mostly Cloudy,0,2012-09-05 11:56:00
4:16 AM,48.2,44.6,87,30.33,10.0,ESE,3.5,-,N/A,,Mostly Cloudy,110,2012-09-05 12:16:00
4:36 AM,46.4,44.6,93,30.33,10.0,Calm,Calm,-,N/A,,Mostly Cloudy,0,2012-09-05 12:36:00
4:56 AM,46.4,44.6,93,30.33,3.0,Calm,Calm,-,N/A,,Scattered Clouds,0,2012-09-05 12:56:00
5:16 AM,46.4,44.6,93,30.33,1.0,Calm,Calm,-,N/A,,Mostly Cloudy,0,2012-09-05 13:16:00
5:36 AM,46.4,44.6,93,30.33,10.0,Calm,Calm,-,N/A,,Mostly Cloudy,0,2012-09-05 13:36:00
5:56 AM,46.4,44.6,93,30.33,10.0,Calm,Calm,-,N/A,,Mostly Cloudy,0,2012-09-05 13:56:00
6:16 AM,46.4,44.6,93,30.33,10.0,Calm,Calm,-,N/A,,Mostly Cloudy,0,2012-09-05 14:16:00
6:36 AM,46.4,44.6,93,30.33,10.0,SE,3.5,-,N/A,,Mostly Cloudy,140,2012-09-05 14:36:00
6:56 AM,46.4,44.6,93,30.34,10.0,Calm,Calm,-,N/A,,Mostly Cloudy,0,2012-09-05 14:56:00
7:16 AM,48.2,44.6,87,30.34,10.0,Calm,Calm,-,N/A,,Mostly Cloudy,0,2012-09-05 15:16:00
7:36 AM,48.2,46.4,93,30.34,10.0,Calm,Calm,-,N/A,,Mostly Cloudy,0,2012-09-05 15:36:00
7:56 AM,48.2,46.4,93,30.34,10.0,Calm,Calm,-,N/A,,Mostly Cloudy,0,2012-09-05 15:56:00
8:16 AM,48.2,46.4,93,30.34,10.0,Calm,Calm,-,N/A,,Mostly Cloudy,0,2012-09-05 16:16:00
8:36 AM,50.0,46.4,87,30.34,10.0,Calm,Calm,-,N/A,,Mostly Cloudy,0,2012-09-05 16:36:00
8:56 AM,50.0,46.4,87,30.34,10.0,Calm,Calm,-,N/A,,Mostly Cloudy,0,2012-09-05 16:56:00
9:16 AM,51.8,46.4,82,30.34,10.0,East,3.5,-,N/A,,Mostly Cloudy,100,2012-09-05 17:16:00
9:36 AM,51.8,46.4,82,30.34,10.0,East,3.5,-,N/A,,Mostly Cloudy,90,2012-09-05 17:36:00
9:56 AM,51.8,48.2,88,30.33,10.0,ENE,3.5,-,N/A,,Scattered Clouds,70,2012-09-05 17:56:00
10:16 AM,51.8,46.4,82,30.34,10.0,NNW,4.6,-,N/A,,Scattered Clouds,330,2012-09-05 18:16:00
10:36 AM,51.8,46.4,82,30.34,10.0,NNW,4.6,-,N/A,,Scattered Clouds,330,2012-09-05 18:36:00
10:56 AM,51.8,46.4,82,30.34,10.0,NW,3.5,-,N/A,,Mostly Cloudy,320,2012-09-05 18:56:00
11:16 AM,53.6,48.2,82,30.34,10.0,North,3.5,-,N/A,,Mostly Cloudy,360,2012-09-05 19:16:00
11:36 AM,53.6,46.4,77,30.34,10.0,NNW,4.6,-,N/A,,Mostly Cloudy,330,2012-09-05 19:36:00
11:56 AM,53.6,46.4,77,30.34,10.0,NW,4.6,-,N/A,,Scattered Clouds,320,2012-09-05 19:56:00
12:16 PM,53.6,48.2,82,30.34,10.0,NNW,6.9,-,N/A,,Scattered Clouds,330,2012-09-05 20:16:00
12:36 PM,53.6,48.2,82,30.34,10.0,NNW,5.8,-,N/A,,Scattered Clouds,340,2012-09-05 20:36:00
12:56 PM,53.6,46.4,77,30.34,10.0,NNW,5.8,-,N/A,,Scattered Clouds,330,2012-09-05 20:56:00
1:16 PM,55.4,46.4,72,30.34,10.0,NNW,6.9,-,N/A,,Scattered Clouds,330,2012-09-05 21:16:00
1:36 PM,55.4,46.4,72,30.34,10.0,NW,4.6,-,N/A,,Scattered Clouds,320,2012-09-05 21:36:00
1:56 PM,55.4,46.4,72,30.34,10.0,NNW,4.6,-,N/A,,Overcast,340,2012-09-05 21:56:00
2:16 PM,53.6,46.4,77,30.34,10.0,NW,5.8,-,N/A,,Overcast,320,2012-09-05 22:16:00
2:36 PM,57.2,46.4,67,30.33,10.0,WSW,4.6,-,N/A,,Overcast,240,2012-09-05 22:36:00
2:56 PM,55.4,46.4,72,30.33,10.0,NNW,4.6,-,N/A,,Overcast,330,2012-09-05 22:56:00
3:16 PM,57.2,46.4,67,30.32,10.0,North,3.5,-,N/A,,Overcast,350,2012-09-05 23:16:00
3:36 PM,55.4,48.2,77,30.32,10.0,NNW,3.5,-,N/A,,Overcast,330,2012-09-05 23:36:00
3:56 PM,55.4,46.4,72,30.31,10.0,Calm,Calm,-,N/A,,Overcast,0,2012-09-05 23:56:00
4:16 PM,53.6,48.2,82,30.31,10.0,Calm,Calm,-,N/A,,Overcast,0,2012-09-06 00:16:00
4:36 PM,55.4,46.4,72,30.29,10.0,Calm,Calm,-,N/A,,Overcast,0,2012-09-06 00:36:00
4:56 PM,55.4,46.4,72,30.30,10.0,Calm,Calm,-,N/A,,Overcast,0,2012-09-06 00:56:00
5:16 PM,53.6,46.4,77,30.30,10.0,Calm,Calm,-,N/A,,Overcast,0,2012-09-06 01:16:00
5:36 PM,53.6,46.4,77,30.29,10.0,Calm,Calm,-,N/A,,Overcast,0,2012-09-06 01:36:00
5:56 PM,55.4,46.4,72,30.29,10.0,Calm,Calm,-,N/A,,Overcast,0,2012-09-06 01:56:00
6:16 PM,55.4,48.2,77,30.28,10.0,Calm,Calm,-,N/A,,Overcast,0,2012-09-06 02:16:00
6:36 PM,53.6,48.2,82,30.28,10.0,Calm,Calm,-,N/A,,Overcast,0,2012-09-06 02:36:00
6:56 PM,53.6,46.4,77,30.28,10.0,Calm,Calm,-,N/A,,Overcast,0,2012-09-06 02:56:00
7:16 PM,53.6,46.4,77,30.28,10.0,Calm,Calm,-,N/A,,Overcast,0,2012-09-06 03:16:00
7:36 PM,53.6,46.4,77,30.28,10.0,Calm,Calm,-,N/A,,Overcast,0,2012-09-06 03:36:00
7:56 PM,53.6,48.2,82,30.29,10.0,WNW,3.5,-,N/A,,Overcast,300,2012-09-06 03:56:00
8:16 PM,53.6,48.2,82,30.28,10.0,NW,3.5,-,N/A,,Overcast,310,2012-09-06 04:16:00
8:36 PM,53.6,48.2,82,30.28,10.0,Calm,Calm,-,N/A,,Overcast,0,2012-09-06 04:36:00
8:56 PM,53.6,46.4,77,30.27,10.0,Calm,Calm,-,N/A,,Overcast,0,2012-09-06 04:56:00
9:16 PM,53.6,48.2,82,30.28,10.0,Calm,Calm,-,N/A,,Overcast,0,2012-09-06 05:16:00
9:36 PM,53.6,48.2,82,30.27,10.0,Calm,Calm,-,N/A,,Overcast,0,2012-09-06 05:36:00
9:56 PM,51.8,48.2,88,30.27,10.0,Calm,Calm,-,N/A,,Overcast,0,2012-09-06 05:56:00
10:16 PM,51.8,48.2,88,30.27,10.0,Calm,Calm,-,N/A,,Overcast,0,2012-09-06 06:16:00
10:36 PM,51.8,48.2,88,30.27,10.0,Calm,Calm,-,N/A,,Overcast,0,2012-09-06 06:36:00
10:56 PM,51.8,48.2,88,30.27,10.0,Calm,Calm,-,N/A,,Overcast,0,2012-09-06 06:56:00
11:16 PM,51.8,48.2,88,30.28,3.0,Calm,Calm,-,N/A,,Overcast,0,2012-09-06 07:16:00
11:36 PM,51.8,48.2,88,30.27,4.0,Calm,Calm,-,N/A,,Overcast,0,2012-09-06 07:36:00
11:56 PM,51.8,50.0,94,30.27,5.0,East,3.5,-,N/A,,Overcast,90,2012-09-06 07:56:00